STARLINK-32754, 62527

Orbit data source: Space-Track

STARLINK-32754, 62527 is a payload satellite owned by SpaceX/Seattle (US) in LEO that was launched on Wed, 08 Jan 2025 UTC via an FALCON 9 launch vehicle from the Air Force Eastern Test Range (AFETR). Payload-class satellites include a variety of spacecraft equipped with specific instruments for various scientific and technological missions. These include communications satellites like Starlink; space stations such as the ISS; scientific satellites like the Hubble; Earth observation satellites from companies like Planet Labs, Umbra, and HawkEye 360; GPS; miniature CubeSats for education and research; and military/defense satellites.

Loading next visibility...
Identifier
62527, 2025-004S
Orbit
LEO
Country
Flag of USUS
Related business
Manufacturer
SpaceX/Seattle
Mission
Operational Commercial Communications
Bus & Motor
STARLINK V2M, Unknown motor
Mass
730 kg wet, ~700 kg dry
Launch date (UTC)
2025-01-08 (8 months ago)
Launch vehicle
FALCON 9
Launch site
Air Force Eastern Test Range (AFETR)
Object type
Payload
Rocket body
Debris
Shape & HBR
Box + 2 Pan, 14.5 m
Radar Cross Section
33.884 m², Large (>1 m²)

Expand to show TLE details & history
Last TLE update: 1 day ago

TLE from 1 day ago
0 STARLINK-32754
1 62527U 25004S   25257.37729059  .00017934  00000-0  65924-3 0  9999
2 62527  43.0045 135.6182 0001442 279.7113  80.3576 15.27599760 38547
Epoch: 2025-09-14T09:03Z
TLE epoch observation values (Epoch: 2025-09-14T09:03:17.906Z)
Latitude
-0.00003°
Longitude
6.19639°
Altitude
482.6 km
Speed
7.626 km/s
True Right ascension
09h 02m 28s
True Declination
0° 00' 00"
Sunlit
Object was in daylight at epoch
Visualization orbit readout
Latitude
Unknown
Longitude
Unknown
Altitude
Unknown
Speed
Unknown
Apparent Right ascension
Unknown
Apparent Declination
Unknown
Sunlit
N/A
Visualization observer readout
Local Sidereal Time
01:20:49
Azimuth
Unknown
Elevation
Unknown
Doppler factor
Unknown
Orbital elements
Apogee altitude
485.924 km
Perigee altitude
483.945 km
Semi-major axis
6,863.071 km
Eccentricity
0.00014
Inclination
43.0045°
RAAN
135.6182°
Arg. of periapsis
279.7113°
True anomaly
80.37389°
Mean anomaly
80.3576°
Eccentric anomaly
80.36575°
Mean motion
3.81738 °/min
Orbital period
94.31 mins
BSTAR
0.00065924
Loading maneuver chart data...
Computing Atmospheric mass density...
Loading historical data...
Loading historical data...
Loading historical data...
Loading historical data...
Loading historical data...
Loading historical data...
Loading historical data...

Documentation

Showing up to 5 results
|